Date String (YYYY-MM-DD hh:mm:ss) UTC,Instrument flags,Ambient pressure (hPa),Sample flow (lpm),Bypass flow (lpm),Sample temperature (°C),Ambient temperature (°C),ASC tube jacket temperature (°C),LED temperature (°C),Box temperature (°C),Sample RH (%),Span deviation,Mass concentration (μg/m³),Mass concentration (μg/m³),Mass concentration (μg/m³)
DateTimeUTC,F1_M11,P_M11,Q1_M11,Q2_M11,T1_M11,T2_M11,T3_M11,T4_M11,T5_M11,U1_M11,ZSPAN_M11,X0_M11,X2_M11,X1_M11
2021-08-26 16:00:00,,0831.0,4.99,0.00,31.3,27.7,00.0,40.4,31.9,33.4,0000.7,0022.26,0011.03,0009.11
2021-08-26 16:01:00,,0831.0,5.00,0.00,31.2,28.0,00.0,40.3,31.9,33.6,0000.9,0022.11,0010.96,0009.07
2021-08-26 16:02:00,,0831.0,5.00,0.00,31.2,28.3,00.0,40.3,32.0,33.9,0001.3,0021.62,0010.93,0009.06
2021-08-26 16:03:00,,0831.0,4.99,0.00,31.2,28.5,00.0,40.2,32.0,34.0,0001.3,0021.15,0010.82,0009.01
2021-08-26 16:04:00,,0831.0,5.01,0.00,31.2,28.6,00.0,40.2,32.1,33.8,0001.3,0021.38,0010.75,0009.00
2021-08-26 16:05:00,,0831.0,5.00,0.00,31.1,28.8,00.0,40.2,32.1,33.9,0001.0,0021.56,0010.77,0008.99
2021-08-26 16:06:00,,0831.0,5.00,0.00,31.1,28.9,00.0,40.1,32.1,34.2,0000.9,0021.61,0010.78,0008.98
2021-08-26 16:07:00,,0831.0,5.01,0.00,31.1,28.5,00.0,40.1,32.0,33.9,0000.9,0022.36,0010.76,0008.97
2021-08-26 16:08:00,,0831.0,5.00,0.00,31.0,27.0,00.0,40.1,31.5,33.9,0000.7,0021.35,0010.65,0008.93
2021-08-26 16:09:00,,0831.0,5.00,0.00,30.8,26.3,00.0,40.0,31.3,34.0,0000.8,0020.79,0010.59,0008.92
2021-08-26 16:10:00,,0831.0,5.00,0.00,30.7,26.5,00.0,39.9,31.4,34.1,0001.1,0020.44,0010.53,0008.91
2021-08-26 16:11:00,,0831.0,4.99,0.00,30.6,26.9,00.0,39.9,31.5,34.5,0001.0,0019.79,0010.48,0008.90
2021-08-26 16:12:00,,0830.9,5.00,0.00,30.6,27.3,00.0,39.8,31.5,35.1,0001.1,0020.00,0010.54,0008.90
2021-08-26 16:13:00,,0831.0,4.99,0.00,30.7,27.7,00.0,39.7,31.7,34.8,0000.9,0020.29,0010.55,0008.92
2021-08-26 16:14:00,,0831.0,5.00,0.00,30.8,28.0,00.0,39.7,31.8,34.3,0000.9,0020.79,0010.61,0008.95
2021-08-26 16:15:00,,0830.9,4.99,0.00,30.8,28.2,00.0,39.7,31.9,34.5,0001.3,0021.34,0010.65,0008.95
2021-08-26 16:16:00,,0830.9,5.00,0.00,30.9,28.4,00.0,39.7,31.9,34.5,0001.5,0021.80,0010.62,0008.94
2021-08-26 16:17:00,,0830.9,5.01,0.00,30.9,28.6,00.0,39.7,31.9,34.4,0001.4,0021.77,0010.67,0008.96
2021-08-26 16:18:00,,0830.8,5.00,0.00,30.9,28.7,00.0,39.7,32.0,34.0,0001.3,0020.90,0010.71,0009.00
2021-08-26 16:19:00,,0830.8,5.00,0.00,30.9,28.9,00.0,39.7,32.0,34.7,0001.0,0022.33,0010.74,0009.03
2021-08-26 16:20:00,,0830.8,5.01,0.00,30.9,29.0,00.0,39.7,32.1,34.3,0001.0,0022.32,0010.87,0009.06
2021-08-26 16:21:00,,0830.8,5.01,0.00,31.0,28.3,00.0,39.7,31.9,34.4,0000.9,0022.69,0010.93,0009.08
2021-08-26 16:22:00,,0830.9,4.99,0.00,30.9,26.8,00.0,39.7,31.5,35.0,0000.9,0023.27,0010.99,0009.11
2021-08-26 16:23:00,,0830.9,5.00,0.00,30.9,26.3,00.0,39.7,31.4,34.7,0000.8,0024.87,0010.99,0009.12
2021-08-26 16:24:00,,0831.1,5.01,0.00,30.9,26.5,00.0,39.7,31.6,33.4,0000.6,0024.84,0011.05,0009.13
2021-08-26 16:25:00,,0831.0,5.00,0.00,30.9,26.9,00.0,39.6,31.6,34.2,0000.5,0025.66,0011.13,0009.13
2021-08-26 16:26:00,,0831.1,5.00,0.00,30.9,27.3,00.0,39.6,31.6,33.9,-000.1,0025.28,0011.11,0009.12
2021-08-26 16:27:00,,0831.1,5.00,0.00,30.9,27.7,00.0,39.6,31.7,33.3,-000.5,0024.61,0011.13,0009.14
2021-08-26 16:28:00,,0831.1,5.01,0.00,30.9,28.0,00.0,39.6,31.7,33.0,-000.2,0024.24,0011.09,0009.16
2021-08-26 16:29:00,,0831.0,4.99,0.00,30.9,28.3,00.0,39.6,31.8,32.8,-000.6,0024.09,0011.05,0009.14
2021-08-26 16:30:00,,0831.1,5.01,0.00,30.9,28.5,00.0,39.6,31.9,32.1,-000.1,0022.77,0011.07,0009.14
2021-08-26 16:31:00,,0831.1,5.00,0.00,30.9,28.6,00.0,39.6,31.9,32.8,0000.0,0022.73,0010.99,0009.11
2021-08-26 16:32:00,,0831.2,4.99,0.00,30.9,28.8,00.0,39.6,32.0,33.6,-000.1,0023.33,0010.99,0009.08
2021-08-26 16:33:00,,0831.2,5.01,0.00,30.9,28.9,00.0,39.7,32.0,33.5,-000.3,0022.79,0010.96,0009.08
2021-08-26 16:34:00,,0831.1,4.99,0.00,30.9,28.0,00.0,39.7,31.8,33.6,-000.4,0021.00,0011.01,0009.08
2021-08-26 16:35:00,,0831.2,5.01,0.00,30.7,26.6,00.0,39.6,31.3,33.4,-000.0,0021.03,0010.97,0009.06
2021-08-26 16:36:00,,0831.2,5.01,0.00,30.6,26.3,00.0,39.6,31.3,31.9,0000.2,0020.23,0010.83,0009.02
2021-08-26 16:37:00,,0831.2,5.00,0.00,30.5,26.5,00.0,39.6,31.3,32.3,0000.3,0019.67,0010.73,0008.98
2021-08-26 16:38:00,,0831.2,4.99,0.00,30.4,27.0,00.0,39.5,31.3,31.7,0000.4,0019.96,0010.66,0008.93
2021-08-26 16:39:00,,0831.1,5.00,0.00,30.4,27.4,00.0,39.5,31.4,32.0,0000.3,0020.69,0010.60,0008.89
2021-08-26 16:40:00,,0831.0,5.00,0.00,30.4,27.8,00.0,39.4,31.5,31.7,0000.5,0020.92,0010.59,0008.84
2021-08-26 16:41:00,,0831.0,5.00,0.00,30.4,28.1,00.0,39.4,31.6,31.4,0000.2,0021.29,0010.58,0008.79
2021-08-26 16:42:00,,0831.0,5.00,0.00,30.4,28.3,00.0,39.4,31.7,31.5,0000.2,0021.14,0010.57,0008.75
2021-08-26 16:43:00,,0831.1,4.99,0.00,30.4,28.5,00.0,39.4,31.8,31.4,0000.2,0020.00,0010.46,0008.71
2021-08-26 16:44:00,,0831.2,5.00,0.00,30.4,28.7,00.0,39.4,31.8,31.3,0000.4,0020.09,0010.42,0008.66
2021-08-26 16:45:00,,0831.2,5.00,0.00,30.4,28.8,00.0,39.4,31.9,31.1,0000.5,0019.88,0010.29,0008.60
2021-08-26 16:46:00,,0831.2,5.00,0.00,30.5,28.8,00.0,39.4,31.9,31.1,0000.3,0020.09,0010.30,0008.56
2021-08-26 16:47:00,,0831.2,4.99,0.00,30.4,27.7,00.0,39.4,31.5,32.0,0000.2,0020.23,0010.33,0008.55
2021-08-26 16:48:00,,0831.2,5.01,0.00,30.3,26.5,00.0,39.3,31.1,32.3,0000.2,0020.74,0010.40,0008.58
2021-08-26 16:49:00,,0831.1,4.99,0.00,30.1,26.3,00.0,39.3,31.1,32.4,0000.4,0020.86,0010.50,0008.61
2021-08-26 16:50:00,,0831.2,4.99,0.00,30.1,26.7,00.0,39.3,31.2,32.9,0000.4,0022.13,0010.53,0008.62
2021-08-26 16:51:00,,0831.1,5.00,0.00,30.0,27.1,00.0,39.2,31.3,32.5,0000.5,0021.99,0010.52,0008.64
2021-08-26 16:52:00,,0831.2,5.01,0.00,30.0,27.5,00.0,39.2,31.3,32.3,0000.7,0022.31,0010.45,0008.65
2021-08-26 16:53:00,,0831.2,5.00,0.00,30.0,27.8,00.0,39.1,31.4,32.7,0000.6,0022.05,0010.42,0008.67
2021-08-26 16:54:00,,0831.2,5.00,0.00,30.0,28.1,00.0,39.1,31.5,31.9,0000.5,0022.34,0010.47,0008.70
2021-08-26 16:55:00,,0831.2,5.00,0.00,30.1,28.4,00.0,39.1,31.6,31.9,0000.5,0022.69,0010.49,0008.75
2021-08-26 16:56:00,,0831.2,4.99,0.00,30.1,28.6,00.0,39.1,31.7,32.2,0000.6,0024.37,0010.51,0008.79
2021-08-26 16:57:00,,0831.2,5.01,0.00,30.1,28.7,00.0,39.1,31.7,32.1,0000.7,0024.76,0010.45,0008.81
2021-08-26 16:58:00,,0831.1,4.99,0.00,30.1,27.9,00.0,39.1,31.5,32.1,0000.7,0025.13,0010.43,0008.83
2021-08-26 16:59:00,,0831.1,5.01,0.00,30.0,26.5,00.0,39.1,31.1,32.3,0000.7,0024.99,0010.44,0008.83
